[[{"header":{"parameterUnit":"m.s-1","parameterCategory":1,"la1":30.2991,"la2":30.254,"lo1":-89.0895,"lo2":-89.0444,"dy":0.0017,"dx":0.0017,"nx":28,"ny":28,"refTime":"2025-06-04T21:00:00:Z","depth":0,"parameterNumber":2,"parameterNumberName":"U-component_of_WINDS"},"data":[0,0,0,0,0,0,0,0,0,0,0,0,0,0,0,0,0,0,0,0,0,0,0,0,0,0,0,0,0,0,0,0,0,0,0,0,0,0,0,0,0,0,0,0,0,0,0,0,0,0,0,0,0,0,0,0,0,0,0.7387,0.7389,0,0.7535,0.7536,0.7538,0.761,0.761,0.761,0.761,0.7763,0.7767,0.7771,0,0,0,0,0,0,0,0,0,0,0,0,0,0.7169,0.7173,0.7387,0.7389,0.7391,0.7534,0.7536,0.7538,0.761,0.761,0.761,0.761,0.7762,0.7766,0.7771,0,0,0,0,0,0,0,0,0,0,0,0,0,0.7285,0.7174,0.7387,0.7444,0.745,0.7534,0.7536,0.7539,0.761,0.761,0.761,0.761,0.776,0.7766,0.7772,0.7811,0,0,0.7791,0.7793,0,0,0,0,0,0,0,0,0.7278,0.7293,0.7434,0.744,0.7447,0.7554,0.7516,0.763,0.761,0.7549,0.761,0.761,0.7694,0.7705,0.7733,0.7818,0.7824,0.7791,0.7795,0.7798,0.7799,0,0,0,0,0,0,0,0.727,0.7287,0.7446,0.7435,0.7444,0.7463,0.7479,0.7538,0.762,0.7555,0.756,0.7577,0.7697,0.7727,0.7737,0.7827,0.7791,0.7797,0.78,0.7803,0.7951,0.7951,0,0,0,0,0,0,0.7253,0.728,0.7441,0.745,0.7361,0.7466,0.7485,0.752,0.7619,0.7635,0.7577,0.7579,0.7716,0.773,0.7743,0.7795,0.7798,0.7803,0.7807,0.7951,0.7951,0.7951,0,0,0,0,0,0,0.7248,0.7266,0.7435,0.7367,0.7389,0.747,0.7509,0.7523,0.7552,0.7636,0.7651,0.7591,0.7717,0.7734,0.7793,0.7801,0.7806,0.7812,0.7951,0.7951,0.7951,0.7899,0,0,0,0,0,0,0.7241,0.7264,0.7279,0.7366,0.7393,0.7482,0.7509,0.7526,0.7562,0.7568,0.7654,0.7668,0.7718,0.7784,0.7799,0.781,0.7816,0.795,0.7951,0.7951,0.79,0.7897,0.7895,0,0,0,0,0,0.7233,0.7259,0.728,0.7299,0.7413,0.7482,0.7498,0.7554,0.7563,0.7579,0.7633,0.7666,0.7797,0.7789,0.7807,0.782,0.795,0.7951,0.7951,0.7901,0.7898,0.7895,0,0,0,0,0,0,0.7171,0.7271,0.7295,0.735,0.7407,0.7494,0.7516,0.7548,0.7605,0.7607,0.7675,0.7694,0.7747,0.779,0.7778,0.7862,0.7877,0.7881,0.7833,0.783,0.7828,0.7816,0.7822,0,0,0,0,0,0.7163,0.7211,0.7296,0.7336,0.7363,0.7434,0.7467,0.7505,0.7568,0.7592,0.7651,0.771,0.7765,0.78,0.7855,0.7907,0.7927,0.7924,0.7921,0.7919,0.7922,0.7952,0.7952,0.7953,0.7953,0.7953,0,0,0.7149,0.7209,0.7235,0.7325,0.7374,0.7422,0.7455,0.7504,0.7541,0.76,0.7659,0.7704,0.7775,0.783,0.7858,0.7867,0.7926,0.792,0.7917,0.7922,0.7953,0.7953,0.7953,0.7954,0.7954,0.7954,0,0,0.7146,0.7196,0.7235,0.7284,0.7357,0.7404,0.7413,0.7496,0.7528,0.7589,0.7634,0.7679,0.7772,0.7821,0.7858,0.7875,0.7907,0.7891,0.7877,0.7906,0.7906,0.7906,0.7913,0.7914,0.7893,0.7893,0.7893,0,0.7118,0.7192,0.7251,0.7298,0.7337,0.7392,0.7433,0.7477,0.7565,0.759,0.7599,0.7718,0.777,0.7837,0.7841,0.7869,0.7882,0.7881,0.7901,0.7902,0.7903,0.791,0.7912,0.7891,0.7891,0.7891,0.7892,0,0.7155,0.7205,0.7228,0.7311,0.7352,0.7395,0.7462,0.7496,0.7531,0.7577,0.7639,0.7703,0.7772,0.7791,0.7826,0.7864,0.7867,0.7888,0.7904,0.79,0.7907,0.791,0.7887,0.7888,0.7889,0.789,0,0,0.7117,0.7232,0.724,0.7278,0.7363,0.7404,0.745,0.7517,0.7546,0.7605,0.7645,0.7723,0.7743,0.7785,0.7825,0.7851,0.786,0.7869,0.7872,0.7865,0.7907,0.789,0.7892,0.7882,0.7883,0.7883,0.7901,0,0.7126,0.7211,0.7266,0.7329,0.7377,0.7431,0.7471,0.7528,0.7573,0.762,0.767,0.7724,0.7746,0.7771,0.7799,0.7853,0.7869,0.7853,0.7921,0.7923,0.7902,0.7896,0.788,0.7893,0.7904,0.7904,0.7905,0,0.7149,0.7206,0.7273,0.7354,0.7376,0.7411,0.7478,0.7522,0.7588,0.7619,0.7666,0.7707,0.7759,0.777,0.7842,0.783,0.7861,0.7892,0.7894,0.7903,0.7914,0.7905,0.7898,0.79,0.791,0.7909,0.7909,0,0.7114,0.7208,0.7261,0.7292,0.7387,0.7411,0.7452,0.7518,0.7555,0.7613,0.7638,0.7701,0.7736,0.7785,0.7843,0.7845,0.7909,0.7925,0.7937,0.7935,0.7948,0.7946,0.7946,0.7967,0.7967,0.7967,0.7967,0,0.7119,0.7158,0.7247,0.7279,0.7325,0.7388,0.7432,0.7478,0.7536,0.7579,0.7629,0.7668,0.7742,0.779,0.7836,0.7889,0.7904,0.7931,0.7943,0.7927,0.7923,0.7949,0.7949,0.7968,0.7968,0.7968,0.7968,0,0.7088,0.7149,0.721,0.7295,0.7318,0.7348,0.7421,0.7455,0.7503,0.7556,0.7572,0.7647,0.7707,0.7769,0.785,0.7881,0.7932,0.7948,0.7909,0.7916,0.7924,0.7922,0.794,0.7946,0.7962,0.7962,0.7962,0,0.7087,0.7119,0.7208,0.724,0.7279,0.733,0.7368,0.7432,0.747,0.7548,0.7572,0.7635,0.7689,0.7782,0.7844,0.7906,0.7924,0.7926,0.7934,0.7917,0.7925,0.7922,0.7926,0.7923,0.7923,0.7923,0.7922,0,0.7079,0.7108,0.7161,0.7224,0.7268,0.7322,0.7377,0.74,0.7475,0.7515,0.7576,0.7618,0.77,0.7763,0.7832,0.7875,0.7911,0.7919,0.7925,0.7909,0.7886,0.7899,0.7902,0.7919,0.7919,0.7919,0.7919,0.792,0.7064,0.7094,0.7162,0.7219,0.7267,0.7318,0.7354,0.7406,0.7458,0.753,0.7565,0.7626,0.7692,0.779,0.7832,0.7881,0.7891,0.79,0.7902,0.7903,0.7899,0.7877,0.7894,0.7894,0.7894,0.7894,0.7895,0,0.7058,0.7104,0.7156,0.7232,0.7278,0.7307,0.737,0.7406,0.7459,0.7518,0.757,0.7641,0.7701,0.7768,0.7833,0.786,0.7878,0.7875,0.7874,0.7883,0.7886,0.7875,0.7859,0.7859,0.7859,0.7859,0.7859,0.7859,0.706,0.7114,0.7151,0.723,0.7276,0.7336,0.737,0.7417,0.7464,0.754,0.7591,0.7634,0.7696,0.7766,0.7823,0.7842,0.7863,0.7855,0.7878,0.788,0.7883,0.7885,0.7875,0.7859,0.7859,0.7871,0.7871,0.7871]},{"header":{"parameterUnit":"m.s-1","parameterCategory":1,"la1":30.2991,"la2":30.254,"lo1":-89.0895,"lo2":-89.0444,"dy":0.0017,"dx":0.0017,"nx":28,"ny":28,"refTime":"2025-06-04T21:00:00:Z","depth":0,"parameterNumber":3,"parameterNumberName":"V-component_of_WINDS"},"data":[0,0,0,0,0,0,0,0,0,0,0,0,0,0,0,0,0,0,0,0,0,0,0,0,0,0,0,0,0,0,0,0,0,0,0,0,0,0,0,0,0,0,0,0,0,0,0,0,0,0,0,0,0,0,0,0,0,0,4.6634,4.6634,0,4.6592,4.6592,4.6591,4.6551,4.655,4.655,4.6549,4.6503,4.6502,4.6501,0,0,0,0,0,0,0,0,0,0,0,0,0,4.6677,4.6676,4.6634,4.6634,4.6633,4.6592,4.6592,4.6591,4.6551,4.655,4.6549,4.6549,4.6503,4.6502,4.6501,0,0,0,0,0,0,0,0,0,0,0,0,0,4.6649,4.6676,4.6634,4.6608,4.6605,4.6592,4.6592,4.6591,4.6551,4.655,4.6549,4.6549,4.6503,4.6502,4.6501,4.6509,0,0,4.6498,4.6497,0,0,0,0,0,0,0,0,4.6651,4.6647,4.6613,4.661,4.6607,4.6576,4.659,4.6564,4.6551,4.6571,4.6549,4.6548,4.6527,4.6524,4.6518,4.6507,4.6505,4.6497,4.6497,4.6496,4.6496,0,0,0,0,0,0,0,4.6653,4.6649,4.6618,4.6612,4.6609,4.6598,4.6593,4.6585,4.6554,4.657,4.6567,4.6562,4.6526,4.6519,4.6517,4.6505,4.6497,4.6496,4.6496,4.6495,4.6498,4.6499,0,0,0,0,0,0,4.6659,4.6651,4.6619,4.6616,4.6627,4.6598,4.6592,4.6587,4.6554,4.6549,4.6563,4.6561,4.6521,4.6518,4.6515,4.6522,4.6496,4.6495,4.6495,4.6497,4.6498,4.6499,0,0,0,0,0,0,4.666,4.6657,4.6621,4.6633,4.6627,4.6598,4.6592,4.6586,4.658,4.6549,4.6543,4.6562,4.6521,4.6516,4.6511,4.652,4.6495,4.6494,4.6496,4.6497,4.6498,4.6537,0,0,0,0,0,0,4.6661,4.6657,4.6661,4.6633,4.6627,4.6619,4.6592,4.6586,4.6578,4.6575,4.6547,4.6541,4.652,4.6513,4.651,4.6518,4.6493,4.6495,4.6497,4.6498,4.6534,4.6539,4.6543,0,0,0,0,0,4.6663,4.6672,4.6661,4.6657,4.6631,4.6619,4.6615,4.6591,4.6579,4.6582,4.6562,4.6542,4.652,4.6513,4.6509,4.6517,4.6495,4.6496,4.6498,4.6533,4.6538,4.6543,0,0,0,0,0,0,4.67,4.6668,4.6655,4.6656,4.6641,4.6612,4.6615,4.6598,4.6585,4.6582,4.6552,4.6546,4.6544,4.653,4.6523,4.6523,4.6504,4.6505,4.6532,4.6537,4.6541,4.6544,4.6492,0,0,0,0,0,4.6709,4.6703,4.6675,4.6679,4.6672,4.6645,4.6639,4.6622,4.6604,4.6597,4.6577,4.656,4.6549,4.6542,4.653,4.6533,4.6525,4.6536,4.654,4.6544,4.6544,4.6544,4.6548,4.6504,4.6504,4.6504,0,0,4.6726,4.6708,4.6706,4.6686,4.6672,4.6666,4.664,4.6634,4.6629,4.6596,4.659,4.6575,4.6554,4.6552,4.655,4.654,4.6555,4.6546,4.6549,4.6548,4.6546,4.655,4.6554,4.6505,4.6505,4.6505,0,0,4.6754,4.674,4.6741,4.6728,4.6708,4.669,4.6691,4.6665,4.6654,4.6648,4.6623,4.6616,4.6598,4.6583,4.6574,4.6597,4.6578,4.6594,4.6615,4.6615,4.6618,4.6621,4.6629,4.6632,4.6595,4.6595,4.6595,0,4.6778,4.6768,4.6744,4.674,4.6732,4.6703,4.6703,4.6692,4.6668,4.6662,4.6652,4.6628,4.6612,4.6606,4.6612,4.6606,4.6604,4.6596,4.662,4.6623,4.6625,4.6632,4.6635,4.6597,4.6597,4.6597,4.6597,0,4.6798,4.6792,4.6795,4.6774,4.6766,4.6764,4.6739,4.6734,4.6717,4.6701,4.6694,4.6674,4.6657,4.6655,4.6639,4.6647,4.6641,4.6626,4.6606,4.6631,4.6637,4.664,4.66,4.6599,4.6599,4.6598,0,0,4.6847,4.6813,4.6815,4.6805,4.6781,4.6775,4.6772,4.6757,4.6752,4.6737,4.6733,4.6719,4.6705,4.6694,4.6676,4.6676,4.6694,4.666,4.6659,4.6666,4.6701,4.6712,4.6716,4.6682,4.6683,4.6683,4.6703,0,4.687,4.6863,4.6842,4.6841,4.6835,4.6808,4.6805,4.679,4.6774,4.6765,4.6747,4.6737,4.672,4.6713,4.6712,4.6693,4.6701,4.6691,4.6677,4.6676,4.6682,4.6719,4.6731,4.6751,4.6705,4.6705,4.6706,0,4.6895,4.6883,4.6883,4.6859,4.6855,4.6853,4.6838,4.683,4.6812,4.68,4.6789,4.6769,4.6763,4.6746,4.6737,4.6731,4.6724,4.6713,4.6713,4.671,4.6692,4.6716,4.6756,4.6759,4.6709,4.6709,4.6709,0,4.693,4.6914,4.6911,4.6904,4.6876,4.6875,4.6863,4.6844,4.6837,4.6823,4.6817,4.6803,4.6794,4.6783,4.6759,4.6749,4.6753,4.6734,4.6742,4.6742,4.6743,4.6743,4.6782,4.674,4.674,4.674,4.674,0,4.6958,4.6958,4.6926,4.6925,4.6924,4.6899,4.6899,4.6885,4.6868,4.6862,4.6838,4.6833,4.6803,4.6794,4.6775,4.677,4.6767,4.6756,4.6751,4.6758,4.6759,4.6752,4.675,4.6741,4.674,4.674,4.674,0,4.6996,4.6975,4.697,4.6945,4.6939,4.6939,4.6917,4.6914,4.6898,4.6891,4.6887,4.6861,4.6849,4.6825,4.6806,4.6794,4.6793,4.6784,4.6799,4.6796,4.6805,4.6804,4.684,4.6843,4.68,4.6801,4.6801,0,4.7014,4.7014,4.6989,4.6984,4.6974,4.6966,4.6959,4.6934,4.6927,4.6906,4.6905,4.6892,4.688,4.6863,4.6841,4.6826,4.6817,4.683,4.6814,4.6821,4.6816,4.6816,4.6816,4.6834,4.6834,4.6835,4.6835,0,4.7049,4.7039,4.7029,4.7016,4.7008,4.6997,4.6984,4.6981,4.6953,4.6946,4.6934,4.6925,4.6907,4.6894,4.6876,4.6863,4.6844,4.6841,4.6842,4.6848,4.6857,4.6852,4.6808,4.684,4.6839,4.6839,4.6839,4.6838,4.7077,4.7076,4.7058,4.7048,4.7036,4.7025,4.7021,4.7004,4.6995,4.6979,4.6965,4.6954,4.6935,4.691,4.6898,4.6889,4.688,4.6881,4.6881,4.6882,4.6885,4.6859,4.6886,4.6885,4.6885,4.6885,4.6885,0,4.711,4.7097,4.7089,4.7072,4.7064,4.7049,4.7034,4.7028,4.702,4.7005,4.6994,4.698,4.6968,4.6945,4.693,4.6927,4.6918,4.6924,4.6924,4.6921,4.6894,4.6894,4.6932,4.6932,4.6932,4.6932,4.6932,4.6932,4.7126,4.7123,4.7111,4.7101,4.7088,4.7079,4.7072,4.7061,4.7048,4.7035,4.7025,4.7011,4.6993,4.6976,4.6964,4.6957,4.6952,4.6961,4.6952,4.6927,4.6923,4.6918,4.6919,4.696,4.696,4.6979,4.6979,4.6979]}]]